Glens Falls, NY

11:51 AM EST on December 13, 2019 (GMT -0500)
Bennett Memorial

Weather History for KGFL - November, 2019

Change the Weather History Date:

Tuesday, November 12, 2019

  Actual Average Record
Temperature  
Mean Temperature 22 °F 38 °F  
Max Temperature 29 °F 48 °F 69 °F (1909)
Min Temperature 15 °F 29 °F 13 °F (1976)
Degree Days  
Heating Degree Days 43 27  
Month to date heating degree days 356 300  
Since 1 July heating degree days 1047 1155  
Cooling Degree Days 0 0  
Month to date cooling degree days 0 0  
Year to date cooling degree days 416 352  
Moisture  
Dew Point 18 °F    
Average Humidity 75    
Maximum Humidity 100    
Minimum Humidity 50    
Precipitation  
Precipitation 0.21 in 0.10 in 0.97 in (1901)
Month to date precipitation 0.72 1.31  
Year to date precipitation 39.42 34.01  
Sea Level Pressure  
Sea Level Pressure 29.91 in    
Wind  
Wind Speed 7 mph (NNE)    
Max Wind Speed 20 mph    
Max Gust Speed 28 mph    
Visibility 7 miles    
Events Fog , Rain , Snow    
T = Trace of Precipitation, MM = Missing Value Source: NWS Daily Summary

Daily Weather History Graph

Daily Weather History Graph

Search for Another Location

Airport or City:

Astronomy

Nov. 12, 2019 Rise Set
Actual Time 6:43 AM EST 4:33 PM EST
Civil Twilight 6:12 AM EST 5:03 PM EST
Nautical Twilight 5:38 AM EST 5:37 PM EST
Astronomical Twilight 5:05 AM EST 6:11 PM EST
Moon 4:59 PM EST (11/12) 6:30 AM EST (11/12)
Length of Visible Light 10h 50m
Length of Day
9h 49m
Full, 100% of the Moon is Illuminated
Nov 12
Full
Nov 19
Last Quarter
Nov 26
New
Dec 4
First Quarter
Dec 12
Full

Hourly Weather History & Observations

Time (EST) Temp. Windchill Dew Point Humidity Pressure Visibility Wind Dir Wind Speed Gust Speed Precip Events Conditions
12:53 AM 28.9 °F 21.1 °F 25.0 °F 85% 29.85 in 10.0 mi NE 8.1 mph - N/A   Overcast
1:53 AM 27.0 °F 20.5 °F 24.1 °F 89% 29.81 in 10.0 mi ENE 5.8 mph - N/A   Overcast
2:53 AM 28.9 °F 19.2 °F 26.1 °F 89% 29.78 in 9.0 mi NNE 11.5 mph - 0.00 in Rain Light Freezing Rain
3:12 AM 28.0 °F 20.0 °F 25.0 °F 88% 29.75 in 10.0 mi ENE 8.1 mph - 0.00 in   Overcast
3:53 AM 26.1 °F 17.6 °F 24.1 °F 92% 29.78 in 3.0 mi ENE 8.1 mph - 0.01 in Rain Light Freezing Rain
4:02 AM 26.1 °F 20.5 °F 25.0 °F 96% 29.76 in 4.0 mi NNE 4.6 mph - 0.01 in Rain Light Freezing Rain
4:28 AM 27.0 °F 21.6 °F 26.1 °F 96% 29.76 in 3.0 mi East 4.6 mph - 0.05 in Rain Light Freezing Rain
4:44 AM 27.0 °F 21.6 °F 26.1 °F 96% 29.75 in 5.0 mi ENE 4.6 mph - 0.07 in Rain Light Freezing Rain
4:53 AM 27.0 °F 20.5 °F 26.1 °F 96% 29.78 in 6.0 mi East 5.8 mph - 0.08 in Rain Light Freezing Rain
5:02 AM 28.0 °F 20.8 °F 25.0 °F 88% 29.76 in 5.0 mi East 6.9 mph - 0.00 in   Overcast
5:28 AM 28.0 °F 21.7 °F 26.1 °F 92% 29.76 in 1.8 mi East 5.8 mph - 0.02 in Snow Light Snow
5:41 AM 27.0 °F 23.0 °F 26.1 °F 96% 29.77 in 0.8 mi ENE 3.5 mph - 0.04 in Snow Light Snow
5:53 AM 27.0 °F 21.6 °F 26.1 °F 96% 29.80 in 0.8 mi East 4.6 mph - 0.06 in Snow Light Snow
6:07 AM 26.1 °F 16.8 °F 24.1 °F 92% 29.79 in 0.8 mi East 9.2 mph - 0.01 in Snow Light Snow
6:53 AM 23.0 °F 12.4 °F 19.9 °F 88% 29.83 in 0.8 mi ENE 10.4 mph - 0.04 in Snow Light Snow
7:53 AM 21.9 °F 11.7 °F 19.9 °F 92% 29.87 in 0.5 mi ENE 9.2 mph - 0.02 in Fog , Snow Light Snow
8:17 AM 21.9 °F 12.5 °F 19.9 °F 92% 29.85 in 1.0 mi ENE 8.1 mph - 0.00 in Snow Light Snow
8:49 AM 21.2 °F 12.6 °F 19.4 °F 93% 29.86 in 3.0 mi East 6.9 mph - 0.00 in Snow Light Snow
9:03 AM 21.9 °F 14.5 °F 19.9 °F 92% 29.86 in 6.0 mi ENE 5.8 mph - 0.00 in   Overcast
9:53 AM 23.0 °F - 19.9 °F 88% 29.91 in 10.0 mi Calm Calm - 0.00 in   Overcast
10:17 AM 23.0 °F - 19.9 °F 88% 29.89 in 10.0 mi Calm Calm - N/A   Overcast
10:39 AM 24.1 °F - 21.0 °F 88% 29.89 in 10.0 mi Calm Calm - N/A   Mostly Cloudy
10:53 AM 24.1 °F - 21.0 °F 88% 29.93 in 8.0 mi Calm Calm - N/A   Mostly Cloudy
11:25 AM 25.0 °F 19.3 °F 21.9 °F 88% 29.90 in 10.0 mi South 4.6 mph - N/A   Overcast
11:49 AM 26.6 °F 22.6 °F 19.4 °F 74% 29.90 in 10.0 mi Variable 3.5 mph - N/A   Overcast
11:53 AM 26.1 °F 20.5 °F 18.0 °F 71% 29.93 in 10.0 mi North 4.6 mph - N/A   Mostly Cloudy
12:04 PM 26.1 °F 17.6 °F 17.1 °F 69% 29.90 in 10.0 mi NNW 8.1 mph - N/A   Overcast
12:38 PM 26.1 °F 19.4 °F 18.0 °F 71% 29.90 in 10.0 mi NNE 5.8 mph - N/A   Overcast
12:53 PM 27.0 °F - 17.1 °F 66% 29.93 in 10.0 mi Calm Calm - N/A   Overcast
1:04 PM 27.0 °F - 18.0 °F 69% 29.90 in 10.0 mi Calm Calm - N/A   Overcast
1:53 PM 26.1 °F 20.5 °F 21.9 °F 84% 29.95 in 10.0 mi South 4.6 mph - N/A   Overcast
2:53 PM 28.9 °F 19.2 °F 15.1 °F 56% 29.96 in 10.0 mi West 11.5 mph 17.3 mph N/A   Mostly Cloudy
3:53 PM 27.0 °F 17.3 °F 10.9 °F 51% 29.99 in 10.0 mi NW 10.4 mph - N/A   Clear
4:53 PM 23.0 °F 13.1 °F 9.0 °F 55% 30.02 in 10.0 mi West 9.2 mph 18.4 mph N/A   Clear
5:53 PM 21.9 °F 13.4 °F 7.0 °F 53% 30.05 in 10.0 mi West 6.9 mph - N/A   Clear
6:53 PM 19.9 °F 11.1 °F 6.1 °F 55% 30.08 in 10.0 mi West 6.9 mph - N/A   Clear
7:53 PM 19.0 °F 12.3 °F 5.0 °F 54% 30.09 in 10.0 mi West 4.6 mph - N/A   Clear
8:53 PM 18.0 °F 7.7 °F 3.9 °F 54% 30.10 in 10.0 mi WNW 8.1 mph - N/A   Clear
9:53 PM 18.0 °F 9.8 °F 6.1 °F 60% 30.12 in 10.0 mi WNW 5.8 mph - N/A   Overcast
10:24 PM 18.0 °F 6.1 °F 9.0 °F 68% 30.09 in 2.5 mi WNW 10.4 mph - 0.00 in Snow Light Snow
10:34 PM 17.1 °F 5.8 °F 9.0 °F 71% 30.09 in 3.0 mi WNW 9.2 mph 17.3 mph 0.00 in Snow Light Snow
10:53 PM 17.1 °F 6.6 °F 8.1 °F 68% 30.13 in 10.0 mi NW 8.1 mph - 0.00 in   Mostly Cloudy
11:17 PM 16.0 °F 5.3 °F 5.0 °F 62% 30.10 in 10.0 mi WNW 8.1 mph - N/A   Partly Cloudy
11:53 PM 15.1 °F 3.3 °F 3.0 °F 59% 30.14 in 10.0 mi NW 9.2 mph - N/A   Clear